EW7772 Weather Reports


Display with metric or nautical units.
time (UTC)temp
F
wind
direction
speed
MPH
gust
MPH
rain 1hr
in
rain 24hr
in
rain mn
in
humidity
%
barometer
mb
20260505173026 58 278 0.0 0.0 0.00 0.07 0.07 80 1007.0
20260505171531 59 278 0.0 0.0 0.00 0.07 0.07 80 1006.9
20260505170028 59 278 0.0 0.0 0.00 0.07 0.07 79 1006.9
20260505164525 60 278 0.0 0.0 0.00 0.07 0.07 79 1006.9
20260505163025 60 278 0.0 0.0 0.00 0.07 0.07 80 1006.8
20260505161524 60 278 0.0 0.0 0.00 0.07 0.07 82 1006.8
20260505153026 60 277 0.0 2.0 0.00 0.07 0.07 83 1007.0
20260505151523 58 270 0.0 2.0 0.00 0.07 0.07 87 1007.2
20260505124518 65 295 0.0 2.0 0.00 0.00 0.00 68 1007.0
20260505123016 66 299 1.0 3.0 0.00 0.00 0.00 64 1006.9
20260505121517 67 275 0.0 3.0 0.00 0.00 0.00 62 1006.8
20260505120017 67 290 0.0 3.0 0.00 0.00 0.00 62 1006.8
20260505114515 67 289 0.0 1.0 0.00 0.00 0.00 62 1006.8
20260505113017 67 286 0.0 2.0 0.00 0.00 0.00 62 1006.7
20260505111514 67 286 0.0 1.0 0.00 0.00 0.00 62 1006.8
20260505101506 66 285 0.0 2.0 0.00 0.00 0.00 64 1007.4
20260505100005 67 285 0.0 2.0 0.00 0.00 0.00 63 1007.6
20260505094502 66 318 0.0 2.0 0.00 0.00 0.00 66 1007.6
20260505093100 65 360 0.0 1.0 0.00 0.00 0.00 67 1007.8
20260505091557 65 291 0.0 0.0 0.00 0.00 0.00 66 1008.0
20260505090058 64 265 0.0 2.0 0.00 0.00 0.00 68 1008.1
20260505084551 62 306 0.0 4.0 0.00 0.00 0.00 68 1008.3
20260505083100 61 275 0.0 2.0 0.00 0.00 0.00 72 1008.3
20260505081552 61 279 0.0 2.0 0.00 0.00 0.00 72 1008.5
20260505080045 61 276 0.0 1.0 0.00 0.00 0.00 70 1008.5
20260505074546 61 275 0.0 3.0 0.00 0.00 0.00 70 1008.6
20260505073042 61 277 0.0 4.0 0.00 0.00 0.00 71 1008.6
20260505071542 61 288 0.0 3.0 0.00 0.00 0.00 70 1008.7
20260505070047 61 288 0.0 3.0 0.00 0.00 0.00 71 1008.8
20260505064552 59 288 0.0 1.0 0.00 0.00 0.00 74 1009.0
20260505063035 58 282 0.0 0.0 0.00 0.00 0.00 77 1009.1
20260505061540 57 282 0.0 0.0 0.00 0.00 0.00 78 1009.1
20260505060034 56 282 0.0 1.0 0.00 0.00 0.00 80 1009.0
20260505054533 54 281 0.0 0.0 0.00 0.00 0.00 84 1009.2
20260505053031 53 281 0.0 0.0 0.00 0.00 0.00 85 1009.2
20260505051531 52 281 0.0 0.0 0.00 0.00 0.00 86 1009.3
20260505041533 49 281 0.0 0.0 0.00 0.00 0.00 88 1009.5
20260505040028 49 281 0.0 0.0 0.00 0.00 0.00 88 1009.3
20260505034527 49 281 0.0 0.0 0.00 0.00 0.00 88 1009.3
20260505033024 50 281 0.0 0.0 0.00 0.00 0.00 87 1009.5
20260505031522 50 281 0.0 0.0 0.00 0.00 0.00 87 1009.6
20260505030020 50 281 0.0 0.0 0.00 0.00 0.00 86 1010.0
20260505024535 51 281 0.0 0.0 0.00 0.00 0.00 86 1010.2
20260505023015 51 281 0.0 0.0 0.00 0.00 0.00 85 1010.2
20260505021517 52 281 0.0 0.0 0.00 0.00 0.00 84 1010.3
20260505020010 53 281 0.0 0.0 0.00 0.00 0.00 83 1010.4
20260505014508 54 281 0.0 0.0 0.00 0.00 0.00 80 1010.6
20260505013013 55 281 0.0 0.0 0.00 0.00 0.00 80 1010.7
20260505011502 55 281 0.0 0.0 0.00 0.00 0.00 77 1010.8
20260505010058 56 281 0.0 0.0 0.00 0.00 0.00 76 1011.0
20260505004557 56 281 0.0 0.0 0.00 0.00 0.00 76 1010.9
20260505003058 57 281 0.0 0.0 0.00 0.00 0.00 75 1011.0
20260505001557 57 281 0.0 0.0 0.00 0.00 0.00 75 1011.0
20260504234605 58 281 0.0 0.0 0.00 0.00 0.00 73 1011.1
20260504233152 58 281 0.0 0.0 0.00 0.00 0.00 73 1011.3
20260504231559 58 281 0.0 0.0 0.00 0.00 0.00 72 1011.4
20260504230047 58 281 0.0 0.0 0.00 0.00 0.00 72 1011.5
20260504224547 58 281 0.0 0.0 0.00 0.00 0.00 71 1011.5
20260504223045 58 281 0.0 0.0 0.00 0.00 0.00 73 1011.5
20260504221551 59 281 0.0 0.0 0.00 0.00 0.00 73 1011.6
20260504220041 59 281 0.0 0.0 0.00 0.00 0.00 71 1011.7
20260504214540 59 281 0.0 0.0 0.00 0.00 0.00 71 1011.8
20260504213040 60 281 0.0 0.0 0.00 0.00 0.00 69 1011.9
20260504211548 60 281 0.0 0.0 0.00 0.00 0.00 68 1012.1
20260504210059 61 281 0.0 0.0 0.00 0.00 0.00 67 1012.4
20260504204547 61 281 0.0 0.0 0.00 0.00 0.00 66 1012.4
20260504203044 62 281 0.0 0.0 0.00 0.00 0.00 64 1012.5
20260504201545 63 281 0.0 0.0 0.00 0.00 0.00 62 1012.6
20260504200038 63 281 0.0 0.0 0.00 0.00 0.00 58 1012.6
20260504194558 63 281 0.0 2.0 0.00 0.00 0.00 58 1012.3
20260504193037 64 283 0.0 2.0 0.00 0.00 0.00 57 1012.3
20260504191545 64 282 0.0 2.0 0.00 0.00 0.00 56 1012.2
20260504190044 64 282 0.0 1.0 0.00 0.00 0.00 55 1011.9
20260504184540 65 282 0.0 2.0 0.00 0.00 0.00 54 1011.8
20260504183034 65 277 0.0 1.0 0.00 0.00 0.00 53 1011.7
20260504181550 66 261 0.0 3.0 0.00 0.00 0.00 52 1011.6
20260504180055 67 277 1.0 5.0 0.00 0.00 0.00 52 1011.5
20260504174534 67 273 0.0 4.0 0.00 0.00 0.00 51 1011.3